Weather History for K1V4 - July, 2012

Change the Weather History Date:

Friday, July 6, 2012

  Actual Average Record
Temperature  
Mean Temperature 70 °F 70 °F  
Max Temperature 83 °F 81 °F 97 °F (1911)
Min Temperature 57 °F 59 °F 40 °F (1906)
Cooling Degree Days 5 5  
Month to date cooling degree days 28 30  
Year to date cooling degree days 120 138  
Since 1 June cooling degree days 94 120  
Growing Degree Days 20 (Base 50)    
Moisture  
Dew Point 62 °F    
Average Humidity 74    
Maximum Humidity 100    
Minimum Humidity 47    
Precipitation  
Precipitation 0.00 in 0.13 in 1.57 in (1999)
Month to date precipitation 2.35 0.75  
Year to date precipitation 17.83 18.17  
Sea Level Pressure  
Sea Level Pressure 29.84 in    
Wind  
Wind Speed - (North)    
Max Wind Speed -    
Max Gust Speed -    
T = Trace of Precipitation, MM = Missing Value Source: NWS Daily Summary

Daily Weather History Graph

Daily Weather History Graph

Search for Another Location

Airport or City:

Trip Planner

Search our weather history database for the weather conditions in past years. The results will help you decide how hot, cold, wet, or windy it might be!

Date:

Astronomy

Jul. 06, 2012 Rise Set
Actual Time 5:10 AM EDT 8:34 PM EDT
Civil Twilight 4:34 AM EDT 9:10 PM EDT
Nautical Twilight 3:47 AM EDT 9:57 PM EDT
Astronomical Twilight 2:47 AM EDT 10:57 PM EDT
Moon 10:11 PM EDT (7/6) 8:36 AM EDT (7/6)
Length of Visible Light 16h 36m
Length of Day
15h 23m
Waning Gibbous, 89% of the Moon is Illuminated
Jul 6
Waning Gibbous
Jul 10
Last Quarter
Jul 19
New
Jul 26
First Quarter
Aug 1
Full

Hourly Weather History & Observations

Time (EDT) Temp. Heat Index Dew Point Humidity Pressure Visibility Wind Dir Wind Speed Gust Speed Precip Events Conditions
12:54 AM 60.1 °F - 57.9 °F 93% 29.88 in - North - - N/A   Unknown
1:54 AM 60.1 °F - 57.9 °F 93% 29.88 in - North - - N/A   Unknown
2:54 AM 59.0 °F - 57.9 °F 96% 29.88 in - North - - N/A   Unknown
3:54 AM 57.9 °F - 57.9 °F 100% 29.88 in - North - - N/A   Unknown
4:54 AM 57.0 °F - 57.0 °F 100% 29.90 in - North - - N/A   Unknown
5:54 AM 57.0 °F - 57.0 °F 100% 29.91 in - North - - N/A   Unknown
6:54 AM 57.0 °F - 57.0 °F 100% 29.93 in - North - - N/A   Unknown
7:54 AM 57.9 °F - 57.0 °F 97% 29.93 in - North - - N/A   Unknown
8:54 AM 59.0 °F - 57.9 °F 96% 29.92 in - North - - N/A   Unknown
9:54 AM 68.0 °F - 61.0 °F 78% 29.89 in - North - - N/A   Unknown
10:54 AM 75.0 °F - 59.0 °F 57% 29.88 in - North - - N/A   Unknown
11:54 AM 77.0 °F - 60.1 °F 56% 29.86 in - North - - N/A   Unknown
12:54 PM 80.1 °F 81.1 °F 61.0 °F 52% 29.84 in - North - - N/A   Unknown
1:54 PM 81.0 °F 81.7 °F 61.0 °F 50% 29.82 in - North - - N/A   Unknown
2:54 PM 82.0 °F 82.4 °F 60.1 °F 47% 29.81 in - North - - N/A   Unknown
3:54 PM 82.9 °F 84.0 °F 63.0 °F 51% 29.80 in - North - - N/A   Unknown
4:54 PM 82.0 °F 83.1 °F 63.0 °F 52% 29.79 in - North - - N/A   Unknown
5:54 PM 80.1 °F 82.7 °F 68.0 °F 67% 29.78 in - North - - N/A   Unknown
6:54 PM 80.1 °F 82.1 °F 66.0 °F 62% 29.79 in - North - - N/A   Unknown
7:54 PM 78.1 °F - 68.0 °F 71% 29.78 in - North - - N/A   Unknown
8:54 PM 73.9 °F - 68.0 °F 82% 29.78 in - North - - N/A   Unknown
9:54 PM 72.0 °F - 68.0 °F 87% 29.78 in - North - - N/A   Unknown
10:54 PM 70.0 °F - 66.9 °F 90% 29.77 in - North - - N/A   Unknown
11:54 PM 70.0 °F - 66.9 °F 90% 29.77 in - North - - N/A   Unknown